Terminal Aerodrome Forecast
Issued by NWS Louisville, KY

Home | Current Version | Previous Version | Text Only | Print | Product List | Glossary On
Versions: 1 2 3 4 5 6 7 8 9 10 11 12 13 14 15 16 17 18
574
FTUS43 KLMK 211004 AAB
TAFBWG
TAF AMD
KBWG 211004Z 2110/2206 VRB04KT 6SM BR SCT005 BKN012
      TEMPO 2110/2113 3SM BR BKN005
     FM211600 31007KT P6SM BKN011
     FM211900 33008KT P6SM BKN022
     FM212300 VRB05KT P6SM SCT030=

USA.gov is the U.S. government's official web portal to all federal, state and local government web resources and services.